FW7943 Weather Reports


time (UTC)temp
F
wind
direction
speed
knots
gust
knots
rain 1hr
in
rain 24hr
in
rain mn
in
humidity
%
barometer
mb
20260502183319 46 313 0.9 1.7 0.00 0.00 0.00 56 1015.0
20260502182814 46 302 2.6 2.6 0.00 0.00 0.00 56 1015.0
20260502182310 47 312 2.6 2.6 0.00 0.00 0.00 54 1014.9
20260502181807 47 341 1.7 2.6 0.00 0.00 0.00 55 1015.0
20260502181306 47 293 2.6 4.3 0.00 0.00 0.00 54 1015.0
20260502180803 46 287 3.5 4.3 0.00 0.00 0.00 57 1015.0
20260502180301 46 3 0.9 1.7 0.00 0.00 0.00 56 1015.1
20260502170220 46 319 3.5 4.3 0.00 0.00 0.00 55 1015.2
20260502164207 49 328 3.5 4.3 0.00 0.00 0.00 54 1015.3
20260502163702 49 50 4.3 7.8 0.00 0.00 0.00 53 1015.5
20260502163159 48 59 3.5 4.3 0.00 0.00 0.00 52 1015.4
20260502162656 47 314 0.9 1.7 0.00 0.00 0.00 56 1015.2
20260502162153 47 343 1.7 1.7 0.00 0.00 0.00 56 1015.6
20260502161650 47 316 2.6 2.6 0.00 0.00 0.00 55 1015.6
20260502161146 46 318 2.6 2.6 0.00 0.00 0.00 57 1015.6
20260502160645 46 317 2.6 4.3 0.00 0.00 0.00 56 1015.7
20260502160143 46 344 4.3 7.0 0.00 0.00 0.00 54 1015.7
20260502152103 48 339 2.6 4.3 0.00 0.00 0.00 53 1015.5
20260502151600 47 353 1.7 1.7 0.00 0.00 0.00 55 1015.4
20260502151057 48 313 3.5 5.2 0.00 0.00 0.00 56 1015.5
20260502150555 48 344 2.6 2.6 0.00 0.00 0.00 57 1015.7
20260502130440 42 337 1.7 1.7 0.00 0.00 0.00 75 1015.7
20260502123422 41 40 0.9 0.9 0.00 0.00 0.00 78 1015.3
20260502122920 41 352 0.9 0.9 0.00 0.00 0.00 77 1015.4
20260502122416 40 43 1.7 1.7 0.00 0.00 0.00 79 1015.5
20260502121914 40 335 0.9 0.9 0.00 0.00 0.00 81 1015.4
20260502121411 40 346 0.9 1.7 0.00 0.00 0.00 81 1015.4
20260502120908 39 341 0.9 0.9 0.00 0.00 0.00 82 1015.4
20260502120404 39 8 0.9 0.9 0.00 0.00 0.00 84 1015.4
20260502115902 39 316 0.0 0.9 0.00 0.00 0.00 85 1015.1
20260502115359 38 327 0.0 0.0 0.00 0.00 0.00 87 1014.9
20260502114855 38 333 0.0 0.0 0.00 0.00 0.00 88 1015.3
20260502114352 38 334 0.0 0.0 0.00 0.00 0.00 89 1015.2
20260502113849 38 335 0.0 0.0 0.00 0.00 0.00 90 1015.3
20260502113346 37 335 0.0 0.0 0.00 0.00 0.00 90 1015.3
20260502112845 37 334 0.0 0.0 0.00 0.00 0.00 91 1015.5
20260502112342 37 335 0.0 0.0 0.00 0.00 0.00 92 1015.3
20260502111839 37 341 0.0 0.0 0.00 0.00 0.00 92 1015.2
20260502111336 37 341 0.0 0.0 0.00 0.00 0.00 92 1015.1
20260502110834 37 341 0.0 0.0 0.00 0.00 0.00 92 1015.2
20260502110332 37 341 0.0 0.0 0.00 0.00 0.00 92 1015.2
20260502105829 36 341 0.0 0.0 0.00 0.00 0.00 92 1015.1
20260502105326 37 342 0.0 0.0 0.00 0.00 0.00 92 1015.1
20260502104824 37 341 0.0 0.0 0.00 0.00 0.00 92 1014.9
20260502104321 37 345 0.9 0.9 0.00 0.00 0.00 91 1014.9
20260502103818 36 349 0.0 0.0 0.00 0.00 0.00 91 1015.0
20260502103315 36 349 0.0 0.0 0.00 0.00 0.00 91 1015.2
20260502102813 36 349 0.0 0.0 0.00 0.00 0.00 90 1015.1
20260502102308 37 349 0.0 0.0 0.00 0.00 0.00 90 1015.2
20260502101807 37 349 0.0 0.0 0.00 0.00 0.00 90 1015.4
20260502101304 37 349 0.0 0.0 0.00 0.00 0.00 90 1015.4
20260502100803 37 350 0.0 0.0 0.00 0.00 0.00 90 1015.1
20260502100301 37 351 0.0 0.0 0.00 0.00 0.00 89 1015.0
20260502091235 38 348 0.0 0.0 0.00 0.00 0.00 87 1015.5
20260502090732 38 348 0.0 0.0 0.00 0.00 0.00 87 1015.3
20260502090229 38 327 0.0 0.0 0.00 0.00 0.00 87 1015.4
20260502071130 41 344 0.0 0.0 0.00 0.00 0.00 78 1015.4
20260502070628 41 340 1.7 1.7 0.00 0.00 0.00 78 1015.5
20260502070125 41 326 0.0 0.0 0.00 0.00 0.00 78 1015.4
20260502065624 41 346 0.9 0.9 0.00 0.00 0.00 77 1015.3
20260502065121 41 346 0.9 1.7 0.00 0.00 0.00 77 1015.3
20260502064620 41 333 0.0 0.0 0.00 0.00 0.00 76 1015.4
20260502064116 41 328 0.0 0.0 0.00 0.00 0.00 77 1015.2
20260502063614 41 340 0.0 0.0 0.00 0.00 0.00 76 1015.2
20260502063111 42 341 0.0 0.0 0.00 0.00 0.00 76 1015.3
20260502062608 41 342 0.0 0.0 0.00 0.00 0.00 76 1015.5
20260502062106 41 345 0.0 0.0 0.00 0.00 0.00 76 1015.5
20260502061604 41 321 0.0 0.9 0.00 0.00 0.00 76 1015.5
20260502061101 41 342 0.0 0.0 0.00 0.00 0.00 76 1016.0
20260502060556 41 342 0.0 0.0 0.00 0.00 0.00 76 1015.7
20260502060053 41 345 0.0 0.0 0.00 0.00 0.00 76 1015.6
20260502055551 41 334 0.0 0.0 0.00 0.00 0.00 75 1015.5
20260502055049 41 329 0.0 0.0 0.00 0.00 0.00 75 1015.6
20260502054548 42 336 0.0 0.9 0.00 0.00 0.00 74 1015.7
20260502054044 42 341 0.0 0.9 0.00 0.00 0.00 73 1015.5
20260502053541 42 332 0.0 0.0 0.00 0.00 0.00 74 1015.6
20260502053039 42 332 0.0 0.0 0.00 0.00 0.00 73 1015.7
20260502052537 42 324 0.9 0.9 0.00 0.00 0.00 73 1015.9
20260502052035 42 343 0.9 0.9 0.00 0.00 0.00 72 1015.7
20260502051533 43 341 0.9 1.7 0.00 0.00 0.00 72 1015.7
20260502051030 43 342 1.7 1.7 0.00 0.00 0.00 72 1016.0
20260502050526 43 332 0.9 1.7 0.00 0.00 0.00 73 1015.9
20260502050023 44 328 2.6 2.6 0.00 0.00 0.00 71 1015.9
20260502045520 44 359 0.9 0.9 0.00 0.00 0.00 72 1015.9
20260502045017 43 332 1.7 1.7 0.00 0.00 0.00 74 1016.1
20260502044514 43 326 1.7 2.6 0.00 0.00 0.00 75 1016.1
20260502044010 44 338 0.9 0.9 0.00 0.00 0.00 74 1016.0
20260502043508 44 308 1.7 1.7 0.00 0.00 0.00 73 1016.0
20260502043004 44 337 2.6 2.6 0.00 0.00 0.00 73 1016.0
20260502042459 44 329 0.9 1.7 0.00 0.00 0.00 73 1016.0
20260502041957 44 322 1.7 1.7 0.00 0.00 0.00 73 1015.6
20260502041455 44 350 1.7 1.7 0.00 0.00 0.00 74 1015.9
20260502040951 44 334 0.0 0.9 0.00 0.00 0.00 76 1015.9
20260502040448 44 336 1.7 1.7 0.00 0.00 0.00 78 1016.0
20260502035944 44 11 0.9 0.9 0.00 0.00 0.00 80 1015.7
20260502035440 45 328 1.7 1.7 0.00 0.00 0.00 80 1015.7
20260502034938 45 330 2.6 2.6 0.00 0.00 0.00 80 1015.6
20260502034436 45 329 0.9 1.7 0.00 0.00 0.00 79 1015.6
20260502033935 45 331 2.6 2.6 0.00 0.00 0.00 80 1015.6
20260502033432 45 323 1.7 2.6 0.00 0.00 0.00 79 1015.7
20260502032928 45 352 1.7 2.6 0.00 0.00 0.00 79 1015.7
20260502032425 46 336 1.7 1.7 0.00 0.00 0.00 78 1015.7
20260502031922 46 358 2.6 4.3 0.00 0.00 0.00 78 1015.7
20260502031421 46 337 1.7 2.6 0.00 0.00 0.00 78 1015.7
20260502030918 46 324 1.7 2.6 0.00 0.00 0.00 78 1015.6
20260502030416 46 319 2.6 2.6 0.00 0.00 0.00 79 1015.9
20260502025914 46 326 0.9 0.9 0.00 0.00 0.00 79 1015.5
20260502025411 46 321 1.7 1.7 0.00 0.00 0.00 78 1015.7
20260502024909 46 342 0.9 1.7 0.00 0.00 0.00 78 1015.7
20260502024407 46 333 0.9 1.7 0.00 0.00 0.00 77 1015.6
20260502023904 46 328 0.9 1.7 0.00 0.00 0.00 77 1015.5
20260502023401 46 335 2.6 2.6 0.00 0.00 0.00 76 1015.5
20260502022859 46 17 2.6 2.6 0.00 0.00 0.00 76 1015.4
20260502022355 46 326 1.7 1.7 0.00 0.00 0.00 77 1015.4
20260502021852 47 332 2.6 2.6 0.00 0.00 0.00 76 1015.5
20260502021349 47 9 0.9 0.9 0.00 0.00 0.00 75 1015.3
20260502020847 47 333 0.9 0.9 0.00 0.00 0.00 74 1015.2
20260502020344 47 335 0.9 1.7 0.00 0.00 0.00 74 1015.3
20260502015841 47 327 0.9 1.7 0.00 0.00 0.00 74 1015.2
20260502015338 47 336 1.7 1.7 0.00 0.00 0.00 73 1014.8
20260502014835 47 314 2.6 2.6 0.00 0.00 0.00 73 1014.9
20260502014332 47 343 0.9 1.7 0.00 0.00 0.00 72 1014.7
20260502013828 47 308 2.6 4.3 0.00 0.00 0.00 72 1014.5
20260502013324 47 324 1.7 1.7 0.00 0.00 0.00 73 1014.6
20260502012821 48 317 2.6 2.6 0.00 0.00 0.00 73 1014.5
20260502012319 48 17 2.6 4.3 0.00 0.00 0.00 73 1014.3
20260502011816 48 327 3.5 4.3 0.00 0.00 0.00 73 1014.3
20260502011312 48 317 2.6 4.3 0.00 0.00 0.00 73 1014.2
20260502010809 48 326 0.9 0.9 0.00 0.00 0.00 74 1014.0
20260502010305 48 307 2.6 2.6 0.00 0.00 0.00 75 1014.1
20260502005802 49 350 1.7 1.7 0.00 0.00 0.00 76 1014.0
20260502005300 49 320 1.7 1.7 0.00 0.00 0.00 76 1013.9
20260502004757 49 335 0.9 0.9 0.00 0.00 0.00 77 1013.9
20260502004253 49 325 1.7 2.6 0.00 0.00 0.00 76 1013.8
20260502003751 49 327 2.6 2.6 0.00 0.00 0.00 76 1013.7
20260502003248 49 334 1.7 2.6 0.00 0.00 0.00 75 1013.7
20260502002744 50 317 2.6 4.3 0.00 0.00 0.00 76 1013.6
20260502002242 50 331 1.7 1.7 0.00 0.00 0.00 76 1013.3
20260502001738 50 314 1.7 2.6 0.00 0.00 0.00 76 1013.5
20260502001237 50 332 1.7 1.7 0.00 0.00 0.00 77 1013.3
20260502000734 50 331 2.6 2.6 0.00 0.00 0.00 77 1013.2
20260502000233 50 0 2.6 4.3 0.00 0.00 0.00 77 1013.1
20260501235732 50 338 2.6 2.6 0.00 0.00 0.00 77 1012.9
20260501235229 50 307 2.6 4.3 0.00 0.00 0.00 76 1012.8
20260501234725 50 328 0.9 1.7 0.00 0.00 0.00 76 1012.9
20260501234222 50 332 2.6 4.3 0.00 0.00 0.00 76 1012.6
20260501233720 50 335 1.7 1.7 0.00 0.00 0.00 75 1012.4
20260501233217 51 268 3.5 5.2 0.00 0.00 0.00 73 1012.4
20260501232712 51 317 2.6 4.3 0.00 0.00 0.00 72 1012.2
20260501232210 52 295 5.2 6.1 0.00 0.00 0.00 71 1012.4
20260501231708 52 344 2.6 2.6 0.00 0.00 0.00 70 1012.4
20260501231206 52 294 2.6 4.3 0.00 0.00 0.00 69 1012.3
20260501230704 53 324 4.3 6.1 0.00 0.00 0.00 68 1012.4
20260501230202 53 329 2.6 2.6 0.00 0.00 0.00 66 1012.0
20260501225659 54 287 2.6 2.6 0.00 0.00 0.00 65 1012.3
20260501225156 55 328 3.5 4.3 0.00 0.00 0.00 61 1012.0
20260501224652 56 327 3.5 6.1 0.00 0.00 0.00 58 1012.1
20260501224150 57 325 4.3 5.2 0.00 0.00 0.00 54 1011.8
20260501223646 58 324 2.6 2.6 0.00 0.00 0.00 51 1012.0
20260501223143 58 315 2.6 2.6 0.00 0.00 0.00 49 1011.8
20260501222638 58 311 3.5 6.1 0.00 0.00 0.00 48 1011.7
20260501222136 58 31 1.7 2.6 0.00 0.00 0.00 47 1011.7
20260501221632 59 300 2.6 4.3 0.00 0.00 0.00 45 1011.8
20260501221130 59 224 4.3 5.2 0.00 0.00 0.00 46 1011.6
20260501220628 59 329 3.5 4.3 0.00 0.00 0.00 44 1011.2
20260501220124 60 280 4.3 6.1 0.00 0.00 0.00 42 1011.3
20260501215621 60 306 2.6 2.6 0.00 0.00 0.00 46 1011.6
20260501215116 60 291 5.2 7.0 0.00 0.00 0.00 43 1011.8
20260501214611 60 308 3.5 4.3 0.00 0.00 0.00 42 1011.4
20260501214107 59 312 3.5 4.3 0.00 0.00 0.00 41 1011.6
20260501213604 60 277 6.1 7.0 0.00 0.00 0.00 41 1011.6
20260501213100 60 296 4.3 6.1 0.00 0.00 0.00 41 1011.2
20260501212557 61 334 2.6 2.6 0.00 0.00 0.00 39 1011.3
20260501212054 60 307 1.7 2.6 0.00 0.00 0.00 40 1011.4
20260501211550 60 311 1.7 1.7 0.00 0.00 0.00 40 1011.3
20260501211049 60 292 2.6 2.6 0.00 0.00 0.00 40 1011.3
20260501210544 61 248 2.6 2.6 0.00 0.00 0.00 39 1011.4
20260501210042 62 270 6.1 6.1 0.00 0.00 0.00 36 1011.4
20260501205538 61 336 4.3 5.2 0.00 0.00 0.00 37 1011.4
20260501205036 60 307 2.6 2.6 0.00 0.00 0.00 39 1011.4
20260501204532 61 228 3.5 4.3 0.00 0.00 0.00 37 1011.7
20260501204028 60 274 3.5 5.2 0.00 0.00 0.00 37 1011.6
20260501203525 60 332 3.5 4.3 0.00 0.00 0.00 37 1011.6
20260501203022 61 294 2.6 4.3 0.00 0.00 0.00 37 1011.7
20260501202519 61 275 4.3 5.2 0.00 0.00 0.00 35 1011.6
20260501202015 61 302 4.3 5.2 0.00 0.00 0.00 36 1011.9
20260501201513 61 275 4.3 5.2 0.00 0.00 0.00 36 1011.6
20260501201009 61 327 4.3 5.2 0.00 0.00 0.00 35 1011.6
20260501200507 62 226 3.5 5.2 0.00 0.00 0.00 35 1011.7
20260501200004 62 294 6.1 7.8 0.00 0.00 0.00 35 1011.8
20260501195501 62 249 6.1 7.0 0.00 0.00 0.00 33 1011.6
20260501194956 63 267 3.5 4.3 0.00 0.00 0.00 34 1011.8
20260501194452 62 289 2.6 2.6 0.00 0.00 0.00 33 1011.8
20260501193948 62 288 4.3 6.1 0.00 0.00 0.00 32 1011.6
20260501193446 62 270 4.3 6.1 0.00 0.00 0.00 32 1011.8
20260501192944 62 288 4.3 7.0 0.00 0.00 0.00 34 1011.8
20260501192441 62 269 6.1 6.1 0.00 0.00 0.00 33 1012.0
20260501191938 62 226 5.2 7.8 0.00 0.00 0.00 33 1012.0
20260501191435 63 277 6.1 7.0 0.00 0.00 0.00 31 1012.0
20260501190932 62 271 7.0 8.7 0.00 0.00 0.00 30 1011.9
20260501190428 63 338 6.1 7.0 0.00 0.00 0.00 30 1011.7
20260501185923 63 310 2.6 5.2 0.00 0.00 0.00 31 1011.9
20260501185420 63 351 5.2 7.0 0.00 0.00 0.00 29 1012.0
20260501184915 63 260 3.5 4.3 0.00 0.00 0.00 30 1011.9
20260501184412 62 308 2.6 4.3 0.00 0.00 0.00 28 1012.2
20260501183907 62 297 5.2 6.1 0.00 0.00 0.00 30 1012.3